Daytona Beach, FL

10:47 PM EDT on June 18, 2018 (GMT -0400)
Daytona Beach International

Weather History for KDAB - June, 2018

Change the Weather History Date:

Thursday, June 14, 2018

  Actual Average Record
Temperature  
Mean Temperature 81 °F 80 °F  
Max Temperature 90 °F 88 °F 101 °F (1998)
Min Temperature 72 °F 72 °F 59 °F (1980)
Degree Days  
Heating Degree Days 0 0  
Month to date heating degree days 0 0  
Since 1 June heating degree days 0 0  
Since 1 July heating degree days 645 809  
Cooling Degree Days 16 15  
Month to date cooling degree days 208 199  
Year to date cooling degree days 920 800  
Since 1 June cooling degree days 208 199  
Growing Degree Days 30 (Base 50)    
Moisture  
Dew Point 74 °F    
Average Humidity 80    
Maximum Humidity 100    
Minimum Humidity 59    
Precipitation  
Precipitation 0.15 in 0.20 in 5.45 in (1934)
Month to date precipitation 2.90 2.63  
Year to date precipitation 28.29 17.70  
Sea Level Pressure  
Sea Level Pressure 30.05 in    
Wind  
Wind Speed 4 mph (South)    
Max Wind Speed 20 mph    
Max Gust Speed 23 mph    
Visibility 9 miles    
Events Rain , Thunderstorm    
T = Trace of Precipitation, MM = Missing Value Source: NWS Daily Summary

Daily Weather History Graph

Daily Weather History Graph

Search for Another Location

Airport or City:

Astronomy

Jun. 14, 2018 Rise Set
Actual Time 6:24 AM EDT 8:24 PM EDT
Civil Twilight 5:57 AM EDT 8:51 PM EDT
Nautical Twilight 5:24 AM EDT 9:24 PM EDT
Astronomical Twilight 4:49 AM EDT 9:59 PM EDT
Moon 7:16 AM EDT (6/14) 9:27 PM EDT (6/14)
Length of Visible Light 14h 54m
Length of Day
13h 59m
New Moon, 1% of the Moon is Illuminated
Jun 14
New Moon
Jun 20
First Quarter
Jun 28
Full
Jul 6
Last Quarter
Jul 12
New

Hourly Weather History & Observations

Time (EDT) Temp. Heat Index Dew Point Humidity Pressure Visibility Wind Dir Wind Speed Gust Speed Precip Events Conditions
12:53 AM 73.0 °F - 73.0 °F 100% 30.07 in 10.0 mi South 4.6 mph - 0.00 in   Scattered Clouds
1:53 AM 73.0 °F - 73.0 °F 100% 30.05 in 10.0 mi SW 3.5 mph - N/A   Scattered Clouds
2:53 AM 73.0 °F - 73.0 °F 100% 30.04 in 9.0 mi West 3.5 mph - N/A   Partly Cloudy
3:53 AM 73.0 °F - 73.0 °F 100% 30.04 in 10.0 mi WNW 3.5 mph - N/A   Scattered Clouds
4:53 AM 72.0 °F - 72.0 °F 100% 30.04 in 8.0 mi SSW 3.5 mph - N/A   Scattered Clouds
5:53 AM 72.0 °F - 72.0 °F 100% 30.06 in 9.0 mi Calm Calm - N/A   Scattered Clouds
6:53 AM 72.0 °F - 72.0 °F 100% 30.06 in 7.0 mi Calm Calm - N/A   Scattered Clouds
7:53 AM 75.0 °F - 73.9 °F 96% 30.08 in 10.0 mi WSW 5.8 mph - N/A   Partly Cloudy
8:53 AM 77.0 °F - 75.0 °F 94% 30.09 in 10.0 mi Calm Calm - N/A   Partly Cloudy
9:53 AM 81.0 °F 86.7 °F 75.0 °F 82% 30.10 in 10.0 mi Calm Calm - N/A   Scattered Clouds
10:53 AM 82.9 °F 90.2 °F 75.0 °F 77% 30.10 in 10.0 mi WSW 4.6 mph - N/A   Scattered Clouds
11:53 AM 86.0 °F 93.8 °F 73.9 °F 67% 30.09 in 10.0 mi Variable 4.6 mph - N/A   Scattered Clouds
12:53 PM 86.0 °F 93.0 °F 73.0 °F 65% 30.08 in 10.0 mi Variable 4.6 mph - N/A   Scattered Clouds
1:53 PM 87.1 °F 93.6 °F 72.0 °F 61% 30.06 in 10.0 mi Variable 3.5 mph - N/A   Scattered Clouds
2:53 PM 89.1 °F 98.0 °F 73.9 °F 61% 30.03 in 10.0 mi Variable 3.5 mph - N/A   Scattered Clouds
3:53 PM 86.0 °F 96.0 °F 75.9 °F 72% 30.01 in 10.0 mi East 6.9 mph - N/A   Scattered Clouds
4:25 PM 82.9 °F 90.2 °F 75.0 °F 77% 30.02 in 9.0 mi East 5.8 mph - 0.00 in Rain , Thunderstorm Light Thunderstorms and Rain
4:31 PM 82.9 °F 90.8 °F 75.9 °F 79% 30.02 in 1.0 mi NE 18.4 mph 23.0 mph 0.00 in Rain , Thunderstorm Heavy Thunderstorms and Rain
4:44 PM 81.0 °F 86.2 °F 73.9 °F 79% 30.00 in 5.0 mi ENE 10.4 mph - 0.00 in Rain , Thunderstorm Light Thunderstorms and Rain
4:53 PM 82.0 °F 88.6 °F 75.0 °F 79% 30.00 in 10.0 mi East 8.1 mph - 0.00 in Thunderstorm Thunderstorm
5:17 PM 82.9 °F 90.8 °F 75.9 °F 79% 30.00 in 10.0 mi East 8.1 mph - N/A   Mostly Cloudy
5:22 PM 82.9 °F 90.2 °F 75.0 °F 77% 30.00 in 10.0 mi ESE 5.8 mph - N/A Thunderstorm Thunderstorm
5:53 PM 82.0 °F 86.3 °F 71.1 °F 69% 30.00 in 10.0 mi Variable 3.5 mph - N/A Thunderstorm Thunderstorm
6:53 PM 77.0 °F - 75.9 °F 96% 30.02 in 6.0 mi WSW 4.6 mph - 0.12 in Rain , Thunderstorm Thunderstorms and Rain
7:53 PM 75.9 °F - 75.9 °F 100% 30.03 in 10.0 mi ESE 4.6 mph - 0.02 in Thunderstorm Thunderstorm
8:32 PM 75.9 °F - 75.0 °F 97% 30.05 in 9.0 mi South 6.9 mph - 0.00 in Rain Light Rain
8:53 PM 75.0 °F - 75.0 °F 100% 30.05 in 10.0 mi SSE 5.8 mph - 0.01 in   Overcast
9:53 PM 73.0 °F - 72.0 °F 96% 30.09 in 10.0 mi SSW 5.8 mph - N/A   Mostly Cloudy
10:03 PM 73.0 °F - 73.0 °F 100% 30.08 in 10.0 mi Calm Calm - N/A Thunderstorm Thunderstorm
10:29 PM 73.0 °F - 72.0 °F 96% 30.08 in 10.0 mi Calm Calm - N/A   Mostly Cloudy
10:53 PM 73.0 °F - 73.0 °F 100% 30.07 in 10.0 mi Calm Calm - N/A   Mostly Cloudy
11:53 PM 73.0 °F - 73.0 °F 100% 30.06 in 10.0 mi South 3.5 mph - N/A   Scattered Clouds